Simultaneous Nadir Overpasses (SNOs) Predictions

Prediction of SNOs between TERRA and METOP-C Satellite Orbit:

Table of predicted SNOs for the next 14.0 days since TLE Epoch: 7/27/2019
Index Date (TERRA) Time (TERRA) Lat,Lon (TERRA) SZA (TERRA ) Date (METOP-C) Time (METOP-C) Lat,Lon (METOP-C) SZA (METOP-C ) Distance(km) Time Diff (sec)
1 07/29/2019 18:06:45 81.30, -44.59 65.31 07/29/2019 18:06:15 81.30, -44.76 65.28 2.86 30
2 07/29/2019 18:56:12 -81.30, 123.01 114.69 07/29/2019 18:56:54 -81.30, 123.02 114.66 0.88 42
3 08/01/2019 13:41:00 81.30, 21.77 65.99 08/01/2019 13:40:37 81.30, 21.90 66.00 2.18 23
4 08/01/2019 14:30:26 -81.31,-170.23 113.95 08/01/2019 14:31:16 -81.31,-170.33 113.94 1.75 50
5 08/04/2019 09:15:13 81.31, 88.47 66.76 08/04/2019 09:14:58 81.31, 88.55 66.76 1.31 15
6 08/04/2019 10:04:40 -81.31,-103.90 113.24 08/04/2019 10:05:38 -81.31,-104.06 113.23 2.81 58
7 08/07/2019 04:49:28 81.30, 154.75 67.50 08/07/2019 04:49:21 81.30, 154.80 67.51 0.87 7
8 08/07/2019 05:38:55 -81.30, -37.60 112.49 08/07/2019 05:40:01 -81.30, -37.79 112.48 3.23 66
9 08/09/2019 23:34:17 -81.29, 53.35 111.74 08/09/2019 23:33:04 -81.29, 53.20 111.78 2.55 73
10 08/10/2019 00:23:42 81.31,-138.63 68.34 08/10/2019 00:23:43 81.31,-138.56 68.34 1.36 1




NCC Satellite Simultaneous Nadir Overpasses (SNOs) Prediction Service
